Location: Gravenhurst
(44.9196°N, 79.3742°W)
Time: 04:05:56
(UTC-04:00)

N. Korean satellite - Visible Passes

Search period start: 23 October 2019 00:00
Search period end: 02 November 2019 00:00
Orbit: 455 x 508 km, 97.2° (Epoch: 22 October)

Date Brightness Start Highest point End Pass type
(mag) Time Alt. Az. Time Alt. Az. Time Alt. Az.
23 Oct 10.4 19:36:44 10° WSW 19:37:39 11° W 19:38:34 10° WNW visible
24 Oct 7.8 06:58:06 10° NNE 07:01:40 49° E 07:05:14 10° S visible
24 Oct 9.5 19:09:25 10° SSW 19:12:07 21° W 19:14:52 10° NW visible
25 Oct 9.3 06:33:12 10° NE 06:36:15 24° E 06:39:18 10° SSE visible
25 Oct 7.9 18:43:23 10° S 18:46:41 44° W 18:50:03 10° NNW visible
26 Oct 10.3 06:09:02 10° ENE 06:10:45 13° E 06:12:28 10° ESE visible
27 Oct 6.7 07:15:26 10° NNE 07:19:07 83° ESE 07:22:49 10° S visible
27 Oct 10.1 19:27:52 10° WSW 19:29:41 14° W 19:31:30 10° WNW visible
28 Oct 8.3 06:50:17 10° NNE 06:53:46 39° E 06:57:15 10° SSE visible
28 Oct 9.0 19:01:12 10° SSW 19:04:10 27° W 19:07:12 10° NW visible
29 Oct 9.6 06:25:31 10° NE 06:28:19 20° E 06:31:08 10° SE visible
30 Oct 10.5 06:02:02 10° ENE 06:02:47 10° E 06:03:31 10° E visible
31 Oct 7.1 07:07:31 10° NNE 07:11:13 67° E 07:14:55 10° S visible
31 Oct 9.9 19:19:20 10° SW 19:21:40 17° W 19:24:02 10° NW visible
01 Nov 8.7 06:42:28 10° NNE 06:45:50 32° E 06:49:11 10° SSE visible
01 Nov 8.6 18:52:59 10° SSW 18:56:10 33° W 18:59:26 10° NNW visible
